[[{"header":{"parameterUnit":"m.s-1","parameterCategory":1,"la1":30.2991,"la2":30.254,"lo1":-89.0895,"lo2":-89.0444,"dy":0.0017,"dx":0.0017,"nx":28,"ny":28,"refTime":"2024-09-28T09:00:00:Z","depth":0,"parameterNumber":2,"parameterNumberName":"U-component_of_WINDS"},"data":[0,0,0,0,0,0,0,0,0,0,0,0,0,0,0,0,0,0,0,0,0,0,0,0,0,0,0,0,0,0,0,0,0,0,0,0,0,0,0,0,0,0,0,0,0,0,0,0,0,0,0,0,0,0,0,0,0,0,1.2734,1.2735,0,1.2824,1.2825,1.2826,1.2857,1.2857,1.2856,1.2856,1.2949,1.2952,1.2955,0,0,0,0,0,0,0,0,0,0,0,0,0,1.2594,1.2596,1.2734,1.2735,1.2737,1.2824,1.2825,1.2826,1.2857,1.2857,1.2856,1.2856,1.2949,1.2952,1.2955,0,0,0,0,0,0,0,0,0,0,0,0,0,1.2666,1.2597,1.2734,1.2762,1.2766,1.2824,1.2825,1.2827,1.2857,1.2857,1.2856,1.2856,1.2947,1.2952,1.2956,1.2992,0,0,1.2969,1.297,0,0,0,0,0,0,0,0,1.2662,1.2671,1.2757,1.2761,1.2765,1.2829,1.281,1.2882,1.2857,1.2823,1.2856,1.2855,1.291,1.2917,1.2935,1.2997,1.3001,1.2969,1.2971,1.2973,1.2974,0,0,0,0,0,0,0,1.2657,1.2668,1.277,1.2758,1.2763,1.2772,1.2782,1.2824,1.2868,1.2826,1.2828,1.2838,1.2912,1.2931,1.2938,1.3002,1.2969,1.2973,1.2975,1.2977,1.3101,1.3102,0,0,0,0,0,0,1.2647,1.2663,1.2767,1.2773,1.2711,1.2775,1.2786,1.2809,1.2868,1.2876,1.2839,1.2839,1.2924,1.2933,1.2941,1.2989,1.2973,1.2977,1.298,1.31,1.3101,1.3102,0,0,0,0,0,0,1.2644,1.2656,1.2763,1.2719,1.2733,1.2778,1.2803,1.2811,1.283,1.2877,1.2886,1.285,1.2924,1.2935,1.298,1.2993,1.2979,1.2983,1.3099,1.3101,1.3102,1.3084,0,0,0,0,0,0,1.264,1.2655,1.2668,1.2719,1.2735,1.2799,1.2804,1.2813,1.2837,1.2839,1.289,1.2898,1.2924,1.2973,1.2984,1.2998,1.2986,1.3099,1.31,1.3101,1.3084,1.3085,1.3086,0,0,0,0,0,1.2634,1.2659,1.2668,1.268,1.2753,1.28,1.281,1.2839,1.2838,1.2852,1.2883,1.2897,1.299,1.2978,1.299,1.3006,1.3098,1.31,1.3101,1.3084,1.3085,1.3086,0,0,0,0,0,0,1.2608,1.2666,1.2677,1.2718,1.2754,1.2805,1.2824,1.2838,1.2875,1.2876,1.2911,1.2922,1.2965,1.299,1.2975,1.3046,1.3045,1.3049,1.3027,1.3029,1.3029,1.3022,1.299,0,0,0,0,0,1.2607,1.264,1.2689,1.2721,1.2739,1.2778,1.28,1.282,1.2858,1.2873,1.2908,1.2945,1.2984,1.3008,1.3045,1.3089,1.3101,1.3106,1.3107,1.3107,1.311,1.3137,1.314,1.3108,1.3108,1.3108,0,0,1.2605,1.2641,1.2659,1.2717,1.2747,1.2781,1.2791,1.2826,1.2852,1.2879,1.2923,1.295,1.2995,1.304,1.3061,1.3062,1.3122,1.3109,1.3109,1.3112,1.3139,1.3142,1.3145,1.3109,1.3109,1.3109,0,0,1.2619,1.2649,1.268,1.2711,1.2756,1.2783,1.279,1.284,1.2859,1.2904,1.2925,1.2958,1.3022,1.3054,1.3078,1.3109,1.3123,1.312,1.3124,1.315,1.3152,1.3155,1.3167,1.317,1.3123,1.3123,1.3123,0,1.2611,1.2663,1.2694,1.2729,1.2755,1.2781,1.2814,1.2842,1.2898,1.2915,1.2916,1.2999,1.303,1.3084,1.3092,1.311,1.3121,1.3114,1.3149,1.3152,1.3155,1.3167,1.3171,1.3123,1.3123,1.3123,1.3123,0,1.2652,1.2688,1.2707,1.2761,1.2789,1.2822,1.286,1.2885,1.2903,1.2931,1.2978,1.3018,1.3065,1.3079,1.3097,1.3136,1.3136,1.3142,1.3142,1.3157,1.3168,1.3173,1.3122,1.3122,1.3122,1.3122,0,0,1.2649,1.2721,1.2728,1.2754,1.2807,1.2836,1.2873,1.2919,1.294,1.2978,1.3011,1.3066,1.3073,1.3101,1.3123,1.3146,1.317,1.3151,1.3152,1.3153,1.3217,1.3212,1.3216,1.318,1.3181,1.3182,1.3214,0,1.2671,1.2735,1.2766,1.2817,1.2852,1.2879,1.2911,1.2949,1.2976,1.3011,1.3042,1.3081,1.3087,1.3104,1.3128,1.3161,1.3183,1.316,1.3211,1.3213,1.3199,1.3222,1.3216,1.3244,1.3219,1.3219,1.322,0,1.2704,1.2742,1.2797,1.2849,1.2865,1.2893,1.2939,1.2971,1.3015,1.3034,1.3067,1.3089,1.313,1.3128,1.3186,1.317,1.3193,1.3213,1.3215,1.3221,1.3217,1.3229,1.3254,1.3258,1.3227,1.3227,1.3226,0,1.2697,1.2763,1.2805,1.2826,1.2888,1.2907,1.2934,1.2977,1.3004,1.3045,1.3063,1.3108,1.3133,1.3169,1.3203,1.3198,1.3259,1.3259,1.3277,1.3276,1.3287,1.3286,1.3316,1.3302,1.3302,1.3302,1.3302,0,1.2718,1.275,1.2804,1.2829,1.2868,1.2904,1.2941,1.297,1.301,1.3043,1.307,1.3101,1.3145,1.3182,1.321,1.3255,1.3266,1.3283,1.329,1.328,1.3278,1.3295,1.3294,1.3303,1.3303,1.3303,1.3303,0,1.2716,1.2753,1.2801,1.2856,1.2871,1.2897,1.2944,1.2972,1.3001,1.3043,1.3055,1.3102,1.3148,1.3186,1.3246,1.3265,1.3312,1.332,1.3296,1.33,1.3316,1.3314,1.3358,1.3366,1.3347,1.3347,1.3347,0,1.2727,1.2753,1.2811,1.2835,1.2861,1.29,1.2927,1.2965,1.2993,1.3047,1.3068,1.3116,1.3155,1.3227,1.3268,1.3314,1.3324,1.3337,1.3331,1.3322,1.3325,1.3323,1.3326,1.3336,1.3336,1.3336,1.3336,0,1.2742,1.2759,1.2798,1.2843,1.2876,1.2913,1.2952,1.2971,1.3016,1.3047,1.3093,1.3124,1.3186,1.3234,1.3285,1.3315,1.3334,1.3338,1.3345,1.3335,1.3321,1.333,1.3297,1.3337,1.3337,1.3337,1.3337,1.3337,1.2747,1.2772,1.2818,1.286,1.2894,1.293,1.2959,1.2993,1.3032,1.3085,1.3106,1.3154,1.3201,1.3272,1.3302,1.3341,1.3344,1.3353,1.3355,1.3357,1.3356,1.3315,1.3351,1.3351,1.3351,1.3351,1.3351,0,1.2764,1.2795,1.2834,1.2888,1.2922,1.2937,1.2982,1.301,1.3052,1.3093,1.3132,1.3187,1.3234,1.3279,1.3329,1.3352,1.3363,1.3364,1.3363,1.337,1.335,1.334,1.3355,1.3355,1.3355,1.3355,1.3355,1.3355,1.2777,1.2821,1.2844,1.2906,1.2937,1.2984,1.3009,1.3043,1.3077,1.3137,1.3176,1.3205,1.3249,1.3302,1.3347,1.3359,1.3377,1.3376,1.3391,1.3372,1.3371,1.337,1.336,1.3379,1.3379,1.3407,1.3407,1.3407]},{"header":{"parameterUnit":"m.s-1","parameterCategory":1,"la1":30.2991,"la2":30.254,"lo1":-89.0895,"lo2":-89.0444,"dy":0.0017,"dx":0.0017,"nx":28,"ny":28,"refTime":"2024-09-28T09:00:00:Z","depth":0,"parameterNumber":3,"parameterNumberName":"V-component_of_WINDS"},"data":[0,0,0,0,0,0,0,0,0,0,0,0,0,0,0,0,0,0,0,0,0,0,0,0,0,0,0,0,0,0,0,0,0,0,0,0,0,0,0,0,0,0,0,0,0,0,0,0,0,0,0,0,0,0,0,0,0,0,2.1642,2.1644,0,2.1862,2.1864,2.1867,2.1945,2.1944,2.1943,2.1943,2.2167,2.2174,2.218,0,0,0,0,0,0,0,0,0,0,0,0,0,2.1291,2.1297,2.1642,2.1645,2.1647,2.1861,2.1864,2.1867,2.1945,2.1944,2.1943,2.1942,2.2165,2.2173,2.2181,0,0,0,0,0,0,0,0,0,0,0,0,0,2.147,2.1299,2.1641,2.1712,2.1721,2.1861,2.1864,2.1868,2.1945,2.1944,2.1943,2.1942,2.2162,2.2172,2.2182,2.2268,0,0,2.2213,2.2217,0,0,0,0,0,0,0,0,2.146,2.1483,2.1699,2.1707,2.1717,2.1875,2.1823,2.2002,2.1946,2.186,2.1943,2.1941,2.2071,2.2088,2.2132,2.2278,2.2288,2.2214,2.222,2.2224,2.2227,0,0,0,0,0,0,0,2.1447,2.1474,2.1729,2.1702,2.1713,2.1733,2.1757,2.1857,2.1969,2.1867,2.1874,2.1899,2.2075,2.2122,2.2138,2.2291,2.2213,2.2222,2.2228,2.2232,2.2521,2.2523,0,0,0,0,0,0,2.1423,2.1463,2.1722,2.1735,2.1583,2.174,2.1767,2.1825,2.1968,2.1989,2.1899,2.1901,2.2105,2.2126,2.2146,2.2258,2.2224,2.2233,2.2239,2.2519,2.2521,2.2523,0,0,0,0,0,0,2.1415,2.1445,2.1713,2.1601,2.1637,2.1748,2.1812,2.183,2.1877,2.1993,2.2013,2.1926,2.2105,2.2132,2.2237,2.2266,2.2238,2.2247,2.2517,2.252,2.2522,2.248,0,0,0,0,0,0,2.1405,2.1442,2.1475,2.1601,2.1642,2.18,2.1814,2.1835,2.1894,2.1899,2.2023,2.2043,2.2106,2.2222,2.2247,2.228,2.2255,2.2515,2.2519,2.2521,2.2479,2.2481,2.2482,0,0,0,0,0,2.1392,2.1454,2.1477,2.1507,2.1686,2.1802,2.1825,2.1897,2.1896,2.1931,2.2006,2.2039,2.2259,2.2232,2.2261,2.2297,2.2514,2.2518,2.2521,2.2479,2.248,2.2482,0,0,0,0,0,0,2.1328,2.1472,2.1498,2.1603,2.169,2.1815,2.1861,2.1897,2.1985,2.1986,2.2072,2.2099,2.2198,2.2258,2.2226,2.2389,2.2388,2.2398,2.2346,2.2349,2.235,2.2334,2.2263,0,0,0,0,0,2.1326,2.1408,2.1529,2.161,2.1652,2.1749,2.1802,2.185,2.1943,2.198,2.2062,2.2151,2.2241,2.2298,2.2386,2.2488,2.2517,2.2527,2.2528,2.2529,2.2537,2.2597,2.2604,2.2535,2.2535,2.2535,0,0,2.1323,2.1412,2.1458,2.1599,2.1672,2.1755,2.1779,2.1865,2.1929,2.1993,2.2099,2.2162,2.2267,2.2371,2.2421,2.2424,2.2562,2.2534,2.2533,2.2541,2.2601,2.2608,2.2613,2.2538,2.2537,2.2537,0,0,2.1361,2.1435,2.1512,2.1585,2.1695,2.1759,2.1777,2.1898,2.1943,2.205,2.21,2.2176,2.2328,2.2402,2.2459,2.2526,2.256,2.2552,2.2559,2.2617,2.2622,2.2628,2.2653,2.2661,2.2559,2.2559,2.2559,0,2.1343,2.1471,2.1546,2.1632,2.1693,2.1756,2.1834,2.1901,2.2034,2.2075,2.2077,2.227,2.2345,2.2469,2.2485,2.2529,2.2553,2.2539,2.2615,2.2622,2.2628,2.2653,2.2662,2.2558,2.2558,2.2558,2.2558,0,2.1444,2.1532,2.1581,2.1709,2.1776,2.1856,2.1945,2.2004,2.2046,2.211,2.222,2.2312,2.2421,2.2454,2.2496,2.2584,2.2583,2.2599,2.26,2.2631,2.2657,2.2667,2.2555,2.2556,2.2556,2.2557,0,0,2.1448,2.1618,2.1634,2.1694,2.1821,2.1891,2.1975,2.2083,2.2132,2.2222,2.2296,2.2423,2.244,2.2504,2.2555,2.2606,2.2655,2.2616,2.262,2.2622,2.2761,2.2749,2.2759,2.2679,2.2681,2.2682,2.2752,0,2.1503,2.1657,2.1729,2.1851,2.1934,2.1996,2.207,2.2156,2.2218,2.2298,2.2367,2.2457,2.247,2.251,2.2563,2.2638,2.2685,2.2634,2.2749,2.2753,2.2723,2.2772,2.276,2.2821,2.2763,2.2764,2.2766,0,2.1588,2.1679,2.181,2.1929,2.1966,2.2031,2.2137,2.2212,2.2311,2.2353,2.2426,2.2476,2.2568,2.2563,2.2692,2.2655,2.2707,2.2751,2.2755,2.277,2.2762,2.279,2.2843,2.2852,2.2782,2.278,2.2779,0,2.1579,2.1734,2.1834,2.1882,2.2023,2.2068,2.2128,2.2227,2.2288,2.238,2.242,2.2521,2.2577,2.2654,2.273,2.2719,2.2853,2.2853,2.2891,2.2889,2.2918,2.2915,2.2981,2.2948,2.2948,2.2947,2.2947,0,2.1634,2.1712,2.1832,2.1893,2.1983,2.2064,2.2151,2.2216,2.2304,2.2379,2.2438,2.2507,2.2603,2.2685,2.2744,2.2843,2.2867,2.2905,2.292,2.2901,2.2896,2.2937,2.2935,2.295,2.2949,2.2949,2.2948,0,2.164,2.1723,2.1835,2.196,2.1993,2.2054,2.2161,2.2223,2.2288,2.2383,2.241,2.2513,2.2613,2.2696,2.2827,2.2867,2.2971,2.2987,2.2937,2.2946,2.298,2.2976,2.3076,2.3094,2.3046,2.3046,2.3047,0,2.167,2.1732,2.1863,2.1919,2.1979,2.2066,2.2129,2.2212,2.2275,2.2394,2.2442,2.2546,2.2634,2.279,2.2877,2.2978,2.2999,2.3027,2.3014,2.2993,2.3002,2.2998,2.3005,2.3028,2.3028,2.3028,2.3028,0,2.1715,2.1754,2.1842,2.1946,2.2019,2.2104,2.2191,2.2232,2.2332,2.24,2.2503,2.2571,2.2705,2.2808,2.2918,2.2982,2.3022,2.3031,2.3046,2.3027,2.2997,2.3016,2.2942,2.3029,2.3029,2.3029,2.3029,2.3029,2.1736,2.1795,2.1897,2.1994,2.2068,2.2148,2.2214,2.2288,2.2375,2.2492,2.2535,2.2641,2.2741,2.2893,2.2957,2.3042,2.3047,2.3067,2.3073,2.3077,2.3075,2.2982,2.3062,2.3062,2.3062,2.3062,2.3062,0,2.1786,2.1855,2.1944,2.2064,2.2141,2.2172,2.227,2.2332,2.2425,2.2515,2.26,2.272,2.282,2.2916,2.3021,2.3071,2.3092,2.3096,2.3094,2.3109,2.3064,2.3041,2.3077,2.3077,2.3077,2.3077,2.3077,2.3077,2.1821,2.1923,2.1974,2.2113,2.2183,2.2287,2.2341,2.2416,2.2488,2.2619,2.2703,2.2765,2.2858,2.2971,2.3065,2.3091,2.3128,2.3127,2.3157,2.3114,2.3111,2.3109,2.3089,2.3134,2.3134,2.3196,2.3196,2.3197]}]]